GW3178 Weather Reports


Display with metric or nautical units.
time (UTC)temp
F
wind
direction
speed
MPH
gust
MPH
rain 1hr
in
rain 24hr
in
rain mn
in
humidity
%
barometer
mb
20260505225722 73 184 0.0 1.0 0.00 0.00 0.00 54 1007.0
20260505225219 73 171 2.0 2.0 0.00 0.00 0.00 53 1007.2
20260505224714 74 177 0.0 0.0 0.00 0.00 0.00 51 1007.3
20260505224212 74 206 1.0 1.0 0.00 0.00 0.00 50 1007.6
20260505223710 75 205 0.0 0.0 0.00 0.00 0.00 48 1007.4
20260505223206 75 167 0.0 0.0 0.00 0.00 0.00 47 1007.5
20260505222702 75 167 0.0 0.0 0.00 0.00 0.00 49 1007.5
20260505222158 75 200 0.0 0.0 0.00 0.00 0.00 47 1007.2
20260505221655 75 171 0.0 0.0 0.00 0.00 0.00 47 1007.3
20260505221152 75 173 0.0 0.0 0.00 0.00 0.00 46 1007.1
20260505220649 75 170 0.0 0.0 0.00 0.00 0.00 46 1007.6
20260505220147 75 176 0.0 0.0 0.00 0.00 0.00 45 1007.3
20260505215644 76 269 2.0 4.0 0.00 0.00 0.00 45 1007.3
20260505215142 76 192 0.0 0.0 0.00 0.00 0.00 44 1007.3
20260505214640 76 245 0.0 0.0 0.00 0.00 0.00 44 1007.2
20260505214137 76 181 0.0 1.0 0.00 0.00 0.00 46 1007.1
20260505213634 77 187 0.0 0.0 0.00 0.00 0.00 45 1007.0
20260505213131 76 178 0.0 0.0 0.00 0.00 0.00 47 1007.0
20260505212627 76 269 2.0 3.0 0.00 0.00 0.00 46 1006.6
20260505212125 76 196 0.0 0.0 0.00 0.00 0.00 46 1006.4
20260505211621 76 200 0.0 0.0 0.00 0.00 0.00 46 1006.4
20260505211119 76 169 0.0 0.0 0.00 0.00 0.00 46 1006.4
20260505210615 75 197 0.0 0.0 0.00 0.00 0.00 47 1006.6
20260505210112 75 171 0.0 0.0 0.00 0.00 0.00 47 1006.6
20260505205609 75 210 0.0 0.0 0.00 0.00 0.00 46 1006.6
20260505205107 76 193 3.0 3.0 0.00 0.00 0.00 44 1006.5
20260505204604 76 193 1.0 1.0 0.00 0.00 0.00 45 1006.6
20260505204102 76 226 0.0 1.0 0.00 0.00 0.00 44 1006.6
20260505203558 77 194 0.0 1.0 0.00 0.00 0.00 42 1006.5
20260505203055 77 165 0.0 0.0 0.00 0.00 0.00 42 1006.5
20260505202551 77 192 0.0 1.0 0.00 0.00 0.00 41 1007.0
20260505202047 77 231 3.0 4.0 0.00 0.00 0.00 40 1006.5
20260505201544 78 318 5.0 8.0 0.00 0.00 0.00 38 1006.4
20260505201042 78 177 0.0 1.0 0.00 0.00 0.00 38 1006.3
20260505200539 78 173 0.0 0.0 0.00 0.00 0.00 38 1006.3
20260505200036 78 155 3.0 4.0 0.00 0.00 0.00 38 1006.2
20260505195532 79 174 0.0 0.0 0.00 0.00 0.00 37 1006.3
20260505195030 79 165 3.0 4.0 0.00 0.00 0.00 36 1006.2
20260505194527 79 132 4.0 6.0 0.00 0.00 0.00 36 1006.3
20260505194022 79 189 2.0 4.0 0.00 0.00 0.00 37 1006.3
20260505193520 79 171 0.0 0.0 0.00 0.00 0.00 37 1006.3
20260505193017 79 197 4.0 6.0 0.00 0.00 0.00 35 1006.2
20260505192516 79 253 1.0 3.0 0.00 0.00 0.00 36 1006.2
20260505192013 79 99 0.0 0.0 0.00 0.00 0.00 35 1006.3
20260505191511 80 256 0.0 1.0 0.00 0.00 0.00 36 1006.1
20260505191009 81 210 3.0 6.0 0.00 0.00 0.00 34 1006.2
20260505190503 81 227 0.0 1.0 0.00 0.00 0.00 37 1006.1
20260505185958 81 250 4.0 6.0 0.00 0.00 0.00 35 1006.0
20260505185456 81 158 0.0 0.0 0.00 0.00 0.00 38 1006.2
20260505184952 80 215 2.0 2.0 0.00 0.00 0.00 38 1006.1
20260505184449 79 169 0.0 0.0 0.00 0.00 0.00 39 1006.0
20260505183945 79 222 0.0 0.0 0.00 0.00 0.00 40 1006.3
20260505183443 79 254 0.0 1.0 0.00 0.00 0.00 40 1006.4
20260505182939 79 163 0.0 0.0 0.00 0.00 0.00 38 1006.1
20260505182436 79 269 4.0 6.0 0.00 0.00 0.00 38 1006.3
20260505181932 80 306 0.0 0.0 0.00 0.00 0.00 39 1006.4
20260505181430 80 172 0.0 0.0 0.00 0.00 0.00 38 1006.6
20260505180927 80 193 4.0 6.0 0.00 0.00 0.00 40 1006.4
20260505180423 80 292 0.0 0.0 0.00 0.00 0.00 38 1006.8
20260505175920 80 311 9.0 11.0 0.00 0.00 0.00 39 1006.9
20260505175416 80 336 6.0 8.0 0.00 0.00 0.00 38 1006.6
20260505174912 80 240 4.0 6.0 0.00 0.00 0.00 38 1006.8
20260505174410 80 247 6.0 7.0 0.00 0.00 0.00 41 1006.9
20260505173906 80 317 3.0 6.0 0.00 0.00 0.00 38 1006.8
20260505173402 80 307 3.0 4.0 0.00 0.00 0.00 39 1006.8
20260505172900 79 136 2.0 2.0 0.00 0.00 0.00 38 1007.1
20260505172357 78 195 4.0 4.0 0.00 0.00 0.00 41 1007.3
20260505171857 79 312 8.0 8.0 0.00 0.00 0.00 39 1007.2
20260505171354 78 161 0.0 0.0 0.00 0.00 0.00 43 1007.4
20260505170850 78 175 1.0 1.0 0.00 0.00 0.00 44 1007.1
20260505170348 78 243 5.0 6.0 0.00 0.00 0.00 42 1007.3
20260505165843 78 298 2.0 4.0 0.00 0.00 0.00 42 1007.2
20260505165339 77 200 0.0 0.0 0.00 0.00 0.00 43 1007.2
20260505164835 77 203 0.0 1.0 0.00 0.00 0.00 44 1007.5
20260505164331 77 186 2.0 6.0 0.00 0.00 0.00 43 1007.5
20260505163830 78 186 0.0 1.0 0.00 0.00 0.00 43 1007.2
20260505163328 78 216 0.0 1.0 0.00 0.00 0.00 43 1007.3
20260505162826 78 232 3.0 4.0 0.00 0.00 0.00 43 1007.5
20260505162322 78 154 0.0 0.0 0.00 0.00 0.00 47 1007.4
20260505161819 77 187 0.0 0.0 0.00 0.00 0.00 45 1007.8
20260505161316 77 237 3.0 4.0 0.00 0.00 0.00 46 1007.9
20260505160814 76 186 0.0 0.0 0.00 0.00 0.00 47 1008.0
20260505160312 78 236 4.0 4.0 0.00 0.00 0.00 45 1007.8
20260505153250 77 248 2.0 3.0 0.00 0.00 0.00 47 1008.1
20260505152747 77 166 0.0 0.0 0.00 0.00 0.00 47 1007.9
20260505152243 76 176 0.0 0.0 0.00 0.00 0.00 48 1008.0
20260505151738 77 158 3.0 6.0 0.00 0.00 0.00 47 1007.9
20260505151236 76 167 1.0 2.0 0.00 0.00 0.00 48 1008.1
20260505150732 77 228 4.0 8.0 0.00 0.00 0.00 46 1007.9
20260505150229 77 200 2.0 2.0 0.00 0.00 0.00 47 1007.9
20260505140154 69 178 0.0 0.0 0.00 0.00 0.00 66 1008.1
20260505130118 59 180 0.0 0.0 0.00 0.00 0.00 83 1008.7
20260505124607 57 179 0.0 0.0 0.00 0.00 0.00 86 1008.9
20260505124104 57 179 0.0 0.0 0.00 0.00 0.00 87 1008.8
20260505123600 56 179 0.0 0.0 0.00 0.00 0.00 89 1008.8
20260505123057 55 179 0.0 0.0 0.00 0.00 0.00 90 1008.8
20260505122553 55 179 0.0 0.0 0.00 0.00 0.00 90 1009.0
20260505122051 55 179 0.0 0.0 0.00 0.00 0.00 90 1009.0
20260505121547 54 179 0.0 0.0 0.00 0.00 0.00 91 1009.2
20260505121044 54 179 0.0 0.0 0.00 0.00 0.00 90 1009.2
20260505120540 54 179 0.0 0.0 0.00 0.00 0.00 90 1009.2
20260505120036 54 178 0.0 0.0 0.00 0.00 0.00 89 1009.2
20260505115531 54 179 0.0 0.0 0.00 0.00 0.00 89 1009.1
20260505115028 54 179 0.0 0.0 0.00 0.00 0.00 89 1009.3
20260505114525 54 179 0.0 0.0 0.00 0.00 0.00 89 1009.2
20260505114021 54 179 0.0 0.0 0.00 0.00 0.00 89 1009.2
20260505113518 54 180 0.0 0.0 0.00 0.00 0.00 90 1009.3
20260505113014 53 179 0.0 0.0 0.00 0.00 0.00 90 1008.8
20260505112510 53 179 0.0 0.0 0.00 0.00 0.00 91 1009.0
20260505112008 53 179 0.0 0.0 0.00 0.00 0.00 92 1008.6
20260505111502 53 179 0.0 0.0 0.00 0.00 0.00 92 1008.7
20260505110959 53 179 0.0 0.0 0.00 0.00 0.00 92 1008.9
20260505110455 53 179 0.0 0.0 0.00 0.00 0.00 92 1008.6
20260505101927 51 179 0.0 0.0 0.00 0.00 0.00 92 1008.5
20260505101421 51 178 0.0 0.0 0.00 0.00 0.00 92 1008.3
20260505100917 51 178 0.0 0.0 0.00 0.00 0.00 93 1008.2
20260505100414 51 184 0.0 0.0 0.00 0.00 0.00 93 1008.5
20260505095909 51 184 0.0 0.0 0.00 0.00 0.00 92 1008.7
20260505095407 51 185 0.0 0.0 0.00 0.00 0.00 91 1008.8
20260505094903 51 183 0.0 0.0 0.00 0.00 0.00 91 1008.7
20260505094400 51 183 0.0 0.0 0.00 0.00 0.00 91 1008.5
20260505093855 51 183 0.0 0.0 0.00 0.00 0.00 91 1008.4
20260505093353 51 183 0.0 0.0 0.00 0.00 0.00 91 1008.5
20260505092850 51 184 0.0 0.0 0.00 0.00 0.00 91 1008.3
20260505092348 51 181 0.0 0.0 0.00 0.00 0.00 91 1008.1
20260505091845 51 181 0.0 0.0 0.00 0.00 0.00 91 1008.1
20260505091343 51 182 0.0 0.0 0.00 0.00 0.00 90 1007.9
20260505090841 51 171 0.0 0.0 0.00 0.00 0.00 90 1007.6
20260505090339 51 174 0.0 0.0 0.00 0.00 0.00 90 1007.7
20260505085836 51 176 0.0 0.0 0.00 0.00 0.00 90 1008.0
20260505085334 51 164 0.0 0.0 0.00 0.00 0.00 89 1007.8
20260505084831 51 164 0.0 0.0 0.00 0.00 0.00 89 1007.7
20260505084330 51 166 0.0 0.0 0.00 0.00 0.00 89 1008.1
20260505083826 52 167 0.0 0.0 0.00 0.00 0.00 89 1007.9
20260505083324 52 147 0.0 0.0 0.00 0.00 0.00 88 1007.9
20260505082820 52 173 0.0 0.0 0.00 0.00 0.00 88 1007.9
20260505082317 52 174 0.0 0.0 0.00 0.00 0.00 88 1007.9
20260505081813 52 173 0.0 0.0 0.00 0.00 0.00 88 1008.0
20260505081310 52 173 0.0 0.0 0.00 0.00 0.00 87 1007.8
20260505080807 53 172 0.0 0.0 0.00 0.00 0.00 87 1007.8
20260505080303 53 172 0.0 0.0 0.00 0.00 0.00 86 1008.0
20260505075758 53 173 0.0 0.0 0.00 0.00 0.00 85 1007.9
20260505075256 53 159 0.0 0.0 0.00 0.00 0.00 85 1008.0
20260505074753 54 156 0.0 0.0 0.00 0.00 0.00 84 1007.7
20260505074250 54 155 0.0 0.0 0.00 0.00 0.00 83 1007.5
20260505073747 54 165 0.0 0.0 0.00 0.00 0.00 83 1007.9
20260505073245 54 168 0.0 0.0 0.00 0.00 0.00 82 1007.7
20260505072742 54 150 0.0 0.0 0.00 0.00 0.00 82 1007.6
20260505072238 54 167 0.0 0.0 0.00 0.00 0.00 83 1007.6
20260505071733 54 166 0.0 0.0 0.00 0.00 0.00 83 1007.7
20260505071230 55 159 0.0 0.0 0.00 0.00 0.00 82 1007.4
20260505070728 55 154 0.0 0.0 0.00 0.00 0.00 82 1007.5
20260505070224 56 138 0.0 0.0 0.00 0.00 0.00 79 1007.4
20260505065720 55 132 0.0 0.0 0.00 0.00 0.00 80 1007.4
20260505065217 55 163 0.0 0.0 0.00 0.00 0.00 82 1007.6
20260505064714 55 139 0.0 0.0 0.00 0.00 0.00 81 1008.1
20260505064212 55 154 0.0 0.0 0.00 0.00 0.00 81 1007.7
20260505063709 55 154 0.0 0.0 0.00 0.00 0.00 81 1007.9
20260505063205 55 154 0.0 0.0 0.00 0.00 0.00 80 1007.8
20260505062701 55 154 0.0 0.0 0.00 0.00 0.00 80 1007.7
20260505062200 55 153 0.0 0.0 0.00 0.00 0.00 79 1007.9
20260505061656 56 153 0.0 0.0 0.00 0.00 0.00 78 1007.8
20260505061154 56 153 0.0 0.0 0.00 0.00 0.00 78 1007.8
20260505060651 56 152 0.0 0.0 0.00 0.00 0.00 77 1007.8
20260505060148 57 174 0.0 0.0 0.00 0.00 0.00 76 1007.9
20260505055643 57 174 0.0 0.0 0.00 0.00 0.00 76 1008.0
20260505055140 57 174 0.0 0.0 0.00 0.00 0.00 75 1007.9
20260505054638 57 173 0.0 0.0 0.00 0.00 0.00 75 1007.8
20260505054135 57 162 0.0 0.0 0.00 0.00 0.00 74 1008.2
20260505053633 58 162 0.0 0.0 0.00 0.00 0.00 75 1008.0
20260505053129 58 163 0.0 0.0 0.00 0.00 0.00 73 1008.1
20260505052626 58 155 0.0 0.0 0.00 0.00 0.00 73 1008.2
20260505052124 58 168 0.0 0.0 0.00 0.00 0.00 72 1008.1
20260505051621 59 169 0.0 0.0 0.00 0.00 0.00 71 1007.9
20260505051119 59 157 0.0 0.0 0.00 0.00 0.00 70 1008.0
20260505050616 60 165 0.0 0.0 0.00 0.00 0.00 69 1007.9
20260505050114 60 171 0.0 0.0 0.00 0.00 0.00 69 1008.2
20260505041544 64 197 0.0 0.0 0.00 0.00 0.00 59 1008.1
20260505041041 63 165 0.0 0.0 0.00 0.00 0.00 59 1007.8
20260505040538 63 163 0.0 0.0 0.00 0.00 0.00 58 1007.8
20260505040035 64 160 0.0 0.0 0.00 0.00 0.00 57 1007.9
20260505035531 65 161 0.0 0.0 0.00 0.00 0.00 56 1007.8
20260505035028 64 165 0.0 0.0 0.00 0.00 0.00 52 1007.8
20260505034525 65 164 0.0 0.0 0.00 0.00 0.00 54 1007.8
20260505034022 66 158 0.0 0.0 0.00 0.00 0.00 52 1007.7
20260505033519 67 167 0.0 0.0 0.00 0.00 0.00 51 1007.8
20260505033017 68 172 0.0 0.0 0.00 0.00 0.00 49 1007.7
20260505032514 68 164 0.0 0.0 0.00 0.00 0.00 48 1007.5
20260505032010 68 172 0.0 0.0 0.00 0.00 0.00 48 1007.7
20260505031508 67 146 0.0 0.0 0.00 0.00 0.00 48 1007.6
20260505031004 67 162 0.0 0.0 0.00 0.00 0.00 50 1007.5
20260505030501 68 129 0.0 1.0 0.00 0.00 0.00 49 1007.7
20260505025955 69 163 0.0 0.0 0.00 0.00 0.00 47 1007.6
20260505025453 68 164 0.0 0.0 0.00 0.00 0.00 47 1007.4
20260505024952 68 168 0.0 0.0 0.00 0.00 0.00 47 1007.7
20260505024449 69 147 0.0 0.0 0.00 0.00 0.00 46 1007.4
20260505023946 69 181 0.0 0.0 0.00 0.00 0.00 45 1007.6
20260505023443 69 170 0.0 0.0 0.00 0.00 0.00 46 1007.5
20260505022940 69 241 0.0 0.0 0.00 0.00 0.00 45 1007.7
20260505022438 68 204 1.0 2.0 0.00 0.00 0.00 46 1007.7
20260505021935 67 175 0.0 0.0 0.00 0.00 0.00 46 1007.6
20260505021431 67 168 0.0 0.0 0.00 0.00 0.00 52 1007.6
20260505020927 67 154 0.0 0.0 0.00 0.00 0.00 51 1007.7
20260505020422 68 167 0.0 0.0 0.00 0.00 0.00 53 1007.7
20260505015919 69 168 0.0 0.0 0.00 0.00 0.00 48 1007.8
20260505015417 70 172 0.0 0.0 0.00 0.00 0.00 46 1007.8
20260505014914 70 214 2.0 2.0 0.00 0.00 0.00 44 1007.5
20260505014411 70 163 1.0 1.0 0.00 0.00 0.00 45 1007.6
20260505013908 69 3 0.0 0.0 0.00 0.00 0.00 44 1007.4
20260505013404 69 165 0.0 0.0 0.00 0.00 0.00 45 1007.5
20260505012903 69 170 0.0 0.0 0.00 0.00 0.00 47 1007.4
20260505012400 68 171 0.0 0.0 0.00 0.00 0.00 49 1007.3
20260505011856 69 112 0.0 0.0 0.00 0.00 0.00 47 1007.3
20260505011353 69 125 0.0 0.0 0.00 0.00 0.00 48 1007.6
20260505010849 69 128 0.0 0.0 0.00 0.00 0.00 45 1007.4
20260505010345 69 167 0.0 0.0 0.00 0.00 0.00 48 1007.2
20260505005842 69 154 0.0 0.0 0.00 0.00 0.00 45 1007.3
20260505005338 68 173 0.0 0.0 0.00 0.00 0.00 47 1007.1
20260505004836 69 144 0.0 0.0 0.00 0.00 0.00 46 1007.1
20260505004332 69 146 0.0 0.0 0.00 0.00 0.00 46 1007.2
20260505003830 70 149 0.0 0.0 0.00 0.00 0.00 44 1006.9
20260505003327 70 101 0.0 0.0 0.00 0.00 0.00 44 1007.0
20260505002822 70 141 2.0 3.0 0.00 0.00 0.00 42 1006.6
20260505002320 69 155 0.0 0.0 0.00 0.00 0.00 43 1006.8
20260505001818 69 170 0.0 0.0 0.00 0.00 0.00 44 1006.8
20260505001315 70 156 0.0 0.0 0.00 0.00 0.00 45 1006.5
20260505000812 71 167 0.0 0.0 0.00 0.00 0.00 43 1006.6
20260505000310 70 159 0.0 0.0 0.00 0.00 0.00 42 1006.6
20260504235806 71 168 0.0 0.0 0.00 0.00 0.00 41 1006.5
20260504235304 71 166 0.0 0.0 0.00 0.00 0.00 43 1006.3
20260504234800 71 149 0.0 0.0 0.00 0.00 0.00 41 1006.5
20260504234258 71 190 0.0 0.0 0.00 0.00 0.00 42 1006.3
20260504233753 71 162 0.0 0.0 0.00 0.00 0.00 42 1006.3
20260504233249 72 156 0.0 0.0 0.00 0.00 0.00 40 1006.2
20260504232746 73 152 0.0 0.0 0.00 0.00 0.00 41 1006.3
20260504232243 74 157 0.0 0.0 0.00 0.00 0.00 36 1006.1
20260504231740 74 175 0.0 0.0 0.00 0.00 0.00 37 1006.0
20260504231237 75 176 0.0 1.0 0.00 0.00 0.00 35 1006.0
20260504230732 74 161 0.0 0.0 0.00 0.00 0.00 36 1006.1
20260504230231 74 173 0.0 0.0 0.00 0.00 0.00 34 1006.0